EW0380 Weather Reports


time (UTC)temp
F
wind
direction
speed
knots
gust
knots
rain 1hr
in
rain 24hr
in
rain mn
in
humidity
%
barometer
mb
20260508014020 47 0.0 0.0 0.00 0.00 0.00 69 1013.7
20260508013024 47 0.0 0.0 0.00 0.00 0.00 64 1013.6
20260508012029 48 215 0.9 1.7 0.00 0.00 0.00 62 1013.6
20260508011015 48 239 0.9 1.7 0.00 0.00 0.00 61 1013.4
20260508010019 49 262 0.9 1.7 0.00 0.00 0.00 60 1013.4
20260508005023 49 258 1.7 3.5 0.00 0.00 0.00 60 1013.4
20260508004028 50 274 1.7 4.3 0.00 0.00 0.00 58 1013.3
20260508003026 50 236 1.7 2.6 0.00 0.00 0.00 58 1013.2
20260508002018 51 261 2.6 5.2 0.00 0.00 0.00 56 1013.1
20260508001042 51 256 2.6 4.3 0.00 0.00 0.00 55 1013.0
20260508000021 52 300 2.6 4.3 0.00 0.00 0.00 54 1013.0
20260507235019 52 261 4.3 7.0 0.00 0.00 0.00 53 1012.9
20260507234017 52 264 3.5 6.1 0.00 0.00 0.00 53 1012.9
20260507233016 53 303 3.5 6.1 0.00 0.00 0.00 52 1012.9
20260507232025 53 262 4.3 8.7 0.00 0.00 0.00 50 1012.9
20260507231030 55 255 4.3 8.7 0.00 0.00 0.00 49 1013.0
20260507230016 57 272 5.2 7.0 0.00 0.00 0.00 46 1013.0
20260507225020 57 301 3.5 5.2 0.00 0.00 0.00 47 1012.9
20260507224045 58 263 4.3 9.6 0.00 0.00 0.00 46 1012.9
20260507223029 58 253 4.3 8.7 0.00 0.00 0.00 45 1012.9
20260507222015 59 296 2.6 6.1 0.00 0.00 0.00 45 1012.9
20260507221039 58 298 3.5 6.1 0.00 0.00 0.00 47 1012.7
20260507220024 57 278 4.3 7.0 0.00 0.00 0.00 46 1012.7
20260507215028 57 244 5.2 8.7 0.00 0.00 0.00 48 1012.6
20260507214032 54 289 3.5 4.3 0.00 0.00 0.00 52 1012.6
20260507213018 55 260 3.5 5.2 0.00 0.00 0.00 51 1012.5
20260507212022 56 251 4.3 7.0 0.00 0.00 0.00 49 1012.5
20260507211027 56 354 3.5 7.8 0.00 0.00 0.00 51 1012.6
20260507210031 57 265 4.3 7.8 0.00 0.00 0.00 49 1012.4
20260507205017 57 23 3.5 5.2 0.00 0.00 0.00 50 1012.5
20260507204021 57 47 3.5 4.3 0.00 0.00 0.00 48 1012.5
20260507203026 56 272 4.3 7.0 0.00 0.00 0.00 46 1012.4
20260507202030 57 267 3.5 4.3 0.00 0.00 0.00 47 1012.4
20260507201016 56 265 3.5 5.2 0.00 0.00 0.00 47 1012.6
20260507200041 56 245 5.2 7.8 0.00 0.00 0.00 47 1012.7
20260507195025 57 342 5.2 7.0 0.00 0.00 0.00 47 1012.8
20260507194029 58 303 4.3 7.8 0.00 0.00 0.00 49 1012.9
20260507193032 58 301 3.5 4.3 0.00 0.00 0.00 47 1013.0
20260507192018 59 266 3.5 6.1 0.00 0.00 0.00 46 1012.9
20260507191022 60 278 3.5 6.1 0.00 0.00 0.00 47 1013.0
20260507190026 60 258 3.5 5.2 0.00 0.00 0.00 48 1013.0
20260507185045 59 252 4.3 7.0 0.00 0.00 0.00 48 1013.0
20260507184016 59 3 3.5 5.2 0.00 0.00 0.00 48 1013.0
20260507183021 60 324 3.5 5.2 0.00 0.00 0.00 48 1012.9
20260507182019 59 270 3.5 7.0 0.00 0.00 0.00 48 1012.9
20260507181017 59 257 3.5 5.2 0.00 0.00 0.00 48 1012.9
20260507180036 59 277 3.5 4.3 0.00 0.00 0.00 50 1013.0
20260507175020 58 313 3.5 7.0 0.00 0.00 0.00 51 1012.9
20260507174024 58 3 2.6 4.3 0.00 0.00 0.00 53 1013.0
20260507173109 58 5 3.5 5.2 0.00 0.00 0.00 52 1013.0
20260507172015 59 12 3.5 4.3 0.00 0.00 0.00 51 1013.0
20260507171019 59 260 2.6 5.2 0.00 0.00 0.00 54 1013.0
20260507170023 58 5 3.5 5.2 0.00 0.00 0.00 53 1013.0
20260507165027 57 29 3.5 4.3 0.00 0.00 0.00 52 1013.0
20260507164032 58 311 2.6 5.2 0.00 0.00 0.00 52 1013.1
20260507163018 58 299 3.5 4.3 0.00 0.00 0.00 53 1013.1
20260507162022 57 27 3.5 4.3 0.00 0.00 0.00 51 1013.1
20260507161027 58 10 3.5 4.3 0.00 0.00 0.00 48 1013.1
20260507160051 57 328 2.6 4.3 0.00 0.00 0.00 51 1013.4
20260507155037 57 29 2.6 3.5 0.00 0.00 0.00 55 1013.4
20260507154041 56 275 2.6 4.3 0.00 0.00 0.00 56 1013.4
20260507153026 55 233 5.2 9.6 0.00 0.00 0.00 54 1013.4
20260507152030 55 289 2.6 3.5 0.00 0.00 0.00 55 1013.6
20260507151036 54 259 2.6 5.2 0.00 0.00 0.00 57 1013.4
20260507150020 55 242 3.5 7.0 0.00 0.00 0.00 56 1013.4
20260507145026 55 245 2.6 5.2 0.00 0.00 0.00 55 1013.4
20260507144028 55 11 2.6 4.3 0.00 0.00 0.00 58 1013.4
20260507143015 55 337 1.7 3.5 0.00 0.00 0.00 59 1013.4
20260507142019 54 260 2.6 4.3 0.00 0.00 0.00 60 1013.6
20260507141023 53 255 2.6 4.3 0.00 0.00 0.00 64 1013.9
20260507140028 53 311 1.7 2.6 0.00 0.00 0.00 65 1013.9
20260507135052 52 272 1.7 3.5 0.00 0.00 0.00 68 1014.0
20260507134018 51 263 2.6 5.2 0.00 0.00 0.00 71 1014.0
20260507133018 50 261 2.6 6.1 0.00 0.00 0.00 73 1013.9
20260507132021 49 232 3.5 4.3 0.00 0.00 0.00 76 1013.9
20260507131025 48 227 2.6 5.2 0.00 0.00 0.00 80 1014.1
20260507130044 47 212 1.7 3.5 0.00 0.00 0.00 80 1014.1
20260507125016 46 225 3.5 4.3 0.00 0.00 0.00 82 1014.1
20260507124041 45 216 2.6 3.5 0.00 0.00 0.00 82 1014.0
20260507123019 44 199 3.5 4.3 0.00 0.00 0.00 83 1013.9
20260507122037 44 199 3.5 4.3 0.00 0.00 0.00 84 1013.9
20260507121015 44 205 3.5 4.3 0.00 0.00 0.00 84 1013.9
20260507120020 43 201 3.5 4.3 0.00 0.00 0.00 85 1014.1
20260507115025 43 206 4.3 4.3 0.00 0.00 0.00 86 1014.0
20260507114029 42 200 3.5 4.3 0.00 0.00 0.00 87 1013.9
20260507113015 41 190 2.6 3.5 0.00 0.00 0.00 88 1013.9
20260507112019 41 203 3.5 4.3 0.00 0.00 0.00 88 1013.9
20260507111024 41 210 2.6 2.6 0.00 0.00 0.00 89 1013.6
20260507110028 40 191 1.7 2.6 0.00 0.00 0.00 90 1013.6
20260507105034 40 202 1.7 3.5 0.00 0.00 0.00 90 1013.5
20260507104018 40 187 2.6 3.5 0.00 0.00 0.00 90 1013.5
20260507103023 39 177 3.5 5.2 0.00 0.01 0.00 90 1013.6
20260507102047 39 180 3.5 3.5 0.00 0.01 0.00 90 1013.4
20260507101031 39 190 3.5 5.2 0.00 0.01 0.00 90 1013.4
20260507100017 39 174 3.5 4.3 0.00 0.02 0.00 90 1013.4
20260507095022 39 176 3.5 4.3 0.00 0.03 0.00 91 1013.4
20260507094046 39 165 3.5 4.3 0.00 0.03 0.00 91 1013.4
20260507093030 39 182 3.5 4.3 0.00 0.03 0.00 91 1013.4
20260507092017 39 180 2.6 4.3 0.00 0.04 0.00 91 1013.4
20260507091022 39 190 2.6 3.5 0.00 0.04 0.00 91 1013.6
20260507090045 39 177 2.6 3.5 0.00 0.05 0.00 91 1013.6
20260507085050 39 173 2.6 3.5 0.00 0.06 0.00 91 1013.6
20260507084036 39 157 2.6 3.5 0.00 0.07 0.00 90 1013.6
20260507083020 40 184 2.6 3.5 0.00 0.08 0.00 90 1013.6
20260507082025 40 189 3.5 4.3 0.00 0.10 0.00 90 1013.8
20260507081029 40 177 3.5 4.3 0.00 0.11 0.00 90 1013.8
20260507080015 40 190 3.5 4.3 0.00 0.11 0.00 90 1013.8
20260507075020 40 176 3.5 4.3 0.00 0.12 0.00 90 1013.8
20260507074024 40 170 3.5 4.3 0.00 0.12 0.00 90 1013.8
20260507073028 40 175 3.5 3.5 0.00 0.13 0.00 90 1013.9
20260507072027 40 168 2.6 3.5 0.00 0.13 0.00 89 1013.9
20260507071039 40 169 2.6 2.6 0.00 0.13 0.00 89 1014.1
20260507070023 40 182 1.7 2.6 0.00 0.13 0.00 89 1014.1
20260507065021 41 175 1.7 2.6 0.00 0.13 0.00 89 1014.1
20260507064019 41 169 1.7 2.6 0.00 0.14 0.00 88 1014.1
20260507063018 41 168 2.6 2.6 0.00 0.15 0.00 88 1014.3
20260507062016 41 183 2.6 3.5 0.00 0.15 0.00 88 1014.3
20260507061026 41 180 2.6 2.6 0.00 0.16 0.00 88 1014.4
20260507060031 42 169 2.6 3.5 0.00 0.17 0.00 87 1014.4
20260507055017 42 170 2.6 2.6 0.00 0.18 0.00 85 1014.4
20260507054102 43 166 2.6 3.5 0.00 0.18 0.00 85 1014.6
20260507053026 43 171 2.6 3.5 0.00 0.18 0.00 86 1014.8
20260507052050 42 184 2.6 3.5 0.00 0.19 0.00 86 1014.8
20260507051016 42 183 2.6 2.6 0.00 0.19 0.00 86 1014.9
20260507050021 42 177 1.7 1.7 0.00 0.20 0.00 86 1014.9
20260507045025 42 160 1.7 2.6 0.00 0.20 0.00 86 1014.9
20260507044029 42 170 1.7 2.6 0.00 0.21 0.00 85 1014.9
20260507043036 43 167 2.6 2.6 0.00 0.22 0.00 86 1014.9
20260507042020 43 165 1.7 3.5 0.00 0.22 0.00 85 1015.1
20260507041024 43 174 1.7 2.6 0.00 0.23 0.00 84 1015.2
20260507040029 42 156 1.7 2.6 0.00 0.24 0.00 85 1015.3
20260507035015 42 171 1.7 2.6 0.00 0.25 0.25 84 1015.3
20260507034019 42 147 1.7 2.6 0.00 0.27 0.25 85 1015.3
20260507033023 43 161 0.9 1.7 0.00 0.28 0.25 86 1015.3
20260507032027 43 0.0 0.0 0.00 0.30 0.25 86 1015.3
20260507031032 43 173 0.9 1.7 0.00 0.32 0.25 86 1015.4
20260507030018 43 0.0 0.0 0.00 0.35 0.25 87 1015.3
20260507025023 43 185 0.9 1.7 0.00 0.38 0.25 87 1015.1
20260507024047 43 151 0.9 1.7 0.00 0.41 0.25 88 1015.2
20260507023031 43 180 0.0 1.7 0.00 0.44 0.25 90 1015.3
20260507022037 43 0.0 0.0 0.00 0.47 0.25 88 1015.2
20260507021047 43 0.0 0.0 0.00 0.48 0.25 87 1015.1
20260507020026 43 0.0 0.0 0.00 0.50 0.25 87 1015.0
20260507015030 44 0.0 0.0 0.00 0.50 0.25 85 1015.1